When you browse on this site, cookies collect data to enhance your experience and personalize the content and advertising you see.
Visit our Privacy Policy to learn more. By continuing to use the site, you agree to this use of cookies and data.
  • In Germany
  • List of Countries
  • For 7 days
  • Water Temperature
  • Weather Map
  • Weather Widgets
  • user-avatar
    Login

    Hourly Weather La Rioja

    Today, 16 September, Monday

    Time Temperature Precipitation Wind Pressure Humidity
    00:00 +23°C° 0 mm 4 mps 711 mmHg 24%
    01:00 +22°C° 0 mm 4 mps 712 mmHg 23%
    02:00 +21°C° 0 mm 5 mps 713 mmHg 23%
    03:00 +19°C° 0 mm 6 mps 714 mmHg 33%
    04:00 +16°C° 0 mm 6 mps 715 mmHg 43%
    05:00 +14°C° 0 mm 7 mps 716 mmHg 52%
    06:00 +12°C° 0 mm 7 mps 717 mmHg 51%
    07:00 +12°C° 0 mm 7 mps 718 mmHg 50%
    08:00 +11°C° 0 mm 6 mps 720 mmHg 49%
    09:00 +12°C° 0 mm 7 mps 720 mmHg 47%
    10:00 +12°C° 0 mm 7 mps 721 mmHg 44%
    11:00 +12°C° 0 mm 7 mps 721 mmHg 41%
    12:00 +14°C° 0 mm 6 mps 721 mmHg 39%
    13:00 +15°C° 0 mm 6 mps 721 mmHg 36%
    14:00 +16°C° 0 mm 5 mps 720 mmHg 33%
    15:00 +17°C° 0 mm 4 mps 720 mmHg 34%
    16:00 +17°C° 0 mm 4 mps 720 mmHg 35%
    17:00 +16°C° 0 mm 3 mps 720 mmHg 36%
    18:00 +16°C° 0 mm 3 mps 721 mmHg 38%
    19:00 +15°C° 0 mm 2 mps 721 mmHg 39%
    20:00 +14°C° 0 mm 2 mps 721 mmHg 41%
    21:00 +14°C° 0 mm 2 mps 721 mmHg 43%
    22:00 +13°C° 0 mm 1 mps 720 mmHg 45%
    23:00 +13°C° 0 mm 1 mps 720 mmHg 47%

    Tomorrow, 17 September, Tuesday

    Time Temperature Precipitation Wind Pressure Humidity
    00:00 +12°C° 0 mm 1 mps 719 mmHg 49%
    01:00 +12°C° 0 mm 1 mps 718 mmHg 51%
    02:00 +11°C° 0 mm 1 mps 718 mmHg 53%
    03:00 +11°C° 0 mm 1 mps 717 mmHg 56%
    04:00 +9°C° 0 mm 0 mps 716 mmHg 58%
    05:00 +9°C° 0 mm 0 mps 716 mmHg 60%
    06:00 +12°C° 0 mm 1 mps 716 mmHg 54%
    07:00 +13°C° 0 mm 1 mps 716 mmHg 48%
    08:00 +15°C° 0 mm 1 mps 716 mmHg 43%
    09:00 +16°C° 0 mm 1 mps 716 mmHg 40%
    10:00 +19°C° 0 mm 1 mps 715 mmHg 36%
    11:00 +19°C° 0 mm 2 mps 715 mmHg 33%
    12:00 +21°C° 0 mm 2 mps 714 mmHg 31%
    13:00 +23°C° 0 mm 2 mps 713 mmHg 29%
    14:00 +24°C° 0 mm 2 mps 712 mmHg 28%
    15:00 +24°C° 0 mm 2 mps 712 mmHg 28%
    16:00 +24°C° 0 mm 3 mps 711 mmHg 28%
    17:00 +24°C° 0 mm 3 mps 710 mmHg 28%
    18:00 +21°C° 0 mm 2 mps 711 mmHg 33%
    19:00 +20°C° 0 mm 1 mps 711 mmHg 38%
    20:00 +18°C° 0 mm 1 mps 712 mmHg 43%
    21:00 +18°C° 0 mm 1 mps 712 mmHg 43%
    22:00 +18°C° 0 mm 1 mps 713 mmHg 43%
    23:00 +16°C° 0 mm 1 mps 713 mmHg 44%

    Day after tomorrow, 18 September, Wednesday

    Time Temperature Precipitation Wind Pressure Humidity
    00:00 +16°C° 0 mm 1 mps 713 mmHg 45%
    01:00 +15°C° 0 mm 1 mps 713 mmHg 46%
    02:00 +15°C° 0 mm 2 mps 713 mmHg 48%
    03:00 +14°C° 0 mm 1 mps 713 mmHg 50%
    04:00 +13°C° 0 mm 1 mps 713 mmHg 53%
    05:00 +13°C° 0 mm 1 mps 713 mmHg 55%
    06:00 +15°C° 0 mm 1 mps 713 mmHg 48%
    07:00 +18°C° 0 mm 1 mps 713 mmHg 41%
    08:00 +20°C° 0 mm 1 mps 713 mmHg 34%
    09:00 +22°C° 0 mm 1 mps 713 mmHg 31%
    10:00 +24°C° 0 mm 2 mps 713 mmHg 27%
    11:00 +26°C° 0 mm 2 mps 712 mmHg 24%
    12:00 +27°C° 0 mm 3 mps 711 mmHg 23%
    13:00 +28°C° 0 mm 3 mps 709 mmHg 21%
    14:00 +29°C° 0 mm 4 mps 708 mmHg 19%
    15:00 +29°C° 0 mm 4 mps 707 mmHg 19%
    16:00 +29°C° 0 mm 4 mps 706 mmHg 18%
    17:00 +29°C° 0 mm 4 mps 705 mmHg 18%
    18:00 +27°C° 0 mm 3 mps 705 mmHg 21%
    19:00 +24°C° 0 mm 2 mps 705 mmHg 24%
    20:00 +22°C° 0 mm 1 mps 705 mmHg 28%
    21:00 +21°C° 0 mm 1 mps 705 mmHg 31%
    22:00 +21°C° 0 mm 1 mps 705 mmHg 33%
    23:00 +20°C° 0 mm 1 mps 705 mmHg 36%

    19 September, Thursday

    Time Temperature Precipitation Wind Pressure Humidity
    00:00 +19°C° 0 mm 1 mps 705 mmHg 37%
    01:00 +18°C° 0 mm 2 mps 704 mmHg 38%
    02:00 +18°C° 0 mm 2 mps 704 mmHg 39%
    03:00 +17°C° 0 mm 2 mps 704 mmHg 43%
    04:00 +16°C° 0 mm 2 mps 704 mmHg 47%
    05:00 +15°C° 0 mm 2 mps 704 mmHg 51%
    06:00 +17°C° 0 mm 3 mps 706 mmHg 48%
    07:00 +17°C° 0 mm 5 mps 708 mmHg 46%
    08:00 +19°C° 0 mm 6 mps 709 mmHg 43%
    09:00 +20°C° 0 mm 6 mps 710 mmHg 40%
    10:00 +21°C° 0 mm 7 mps 711 mmHg 37%
    11:00 +21°C° 0 mm 7 mps 712 mmHg 33%
    12:00 +22°C° 0 mm 7 mps 712 mmHg 31%
    13:00 +22°C° 0 mm 6 mps 712 mmHg 28%
    14:00 +23°C° 0 mm 6 mps 711 mmHg 25%
    15:00 +23°C° 0 mm 5 mps 711 mmHg 25%
    16:00 +22°C° 0 mm 5 mps 711 mmHg 24%
    17:00 +22°C° 0 mm 4 mps 711 mmHg 23%
    18:00 +20°C° 0 mm 4 mps 712 mmHg 23%
    19:00 +19°C° 0 mm 4 mps 713 mmHg 22%
    20:00 +17°C° 0 mm 3 mps 714 mmHg 22%
    21:00 +15°C° 0 mm 4 mps 714 mmHg 20%
    22:00 +14°C° 0 mm 4 mps 715 mmHg 18%
    23:00 +14°C° 0 mm 4 mps 716 mmHg 16%

    20 September, Friday

    Time Temperature Precipitation Wind Pressure Humidity
    00:00 +13°C° 0 mm 3 mps 716 mmHg 18%
    01:00 +12°C° 0 mm 3 mps 716 mmHg 20%
    02:00 +11°C° 0 mm 3 mps 716 mmHg 22%
    03:00 +12°C° 0 mm 2 mps 716 mmHg 24%
    04:00 +10°C° 0 mm 2 mps 716 mmHg 25%
    05:00 +9°C° 0 mm 2 mps 717 mmHg 27%
    06:00 +12°C° 0 mm 2 mps 717 mmHg 25%
    07:00 +13°C° 0 mm 2 mps 718 mmHg 23%
    08:00 +15°C° 0 mm 2 mps 719 mmHg 20%
    09:00 +16°C° 0 mm 2 mps 719 mmHg 20%
    10:00 +17°C° 0 mm 2 mps 719 mmHg 19%
    11:00 +18°C° 0 mm 2 mps 719 mmHg 18%
    12:00 +19°C° 0 mm 3 mps 718 mmHg 18%
    13:00 +20°C° 0 mm 3 mps 717 mmHg 18%
    14:00 +21°C° 0 mm 3 mps 717 mmHg 18%
    15:00 +21°C° 0 mm 3 mps 716 mmHg 17%
    16:00 +21°C° 0 mm 3 mps 716 mmHg 17%
    17:00 +21°C° 0 mm 3 mps 716 mmHg 17%
    18:00 +20°C° 0 mm 3 mps 716 mmHg 19%
    19:00 +18°C° 0 mm 2 mps 716 mmHg 21%
    20:00 +16°C° 0 mm 2 mps 717 mmHg 24%
    21:00 +15°C° 0 mm 1 mps 717 mmHg 25%
    22:00 +14°C° 0 mm 1 mps 717 mmHg 26%
    23:00 +13°C° 0 mm 1 mps 717 mmHg 28%

    21 September, Saturday

    Time Temperature Precipitation Wind Pressure Humidity
    00:00 +13°C° 0 mm 1 mps 716 mmHg 28%
    01:00 +12°C° 0 mm 1 mps 716 mmHg 29%
    02:00 +12°C° 0 mm 1 mps 716 mmHg 30%
    03:00 +11°C° 0 mm 1 mps 715 mmHg 31%
    04:00 +11°C° 0 mm 1 mps 715 mmHg 33%
    05:00 +10°C° 0 mm 1 mps 714 mmHg 34%
    06:00 +12°C° 0 mm 1 mps 715 mmHg 31%
    07:00 +14°C° 0 mm 1 mps 715 mmHg 28%
    08:00 +16°C° 0 mm 2 mps 715 mmHg 25%
    09:00 +18°C° 0 mm 2 mps 715 mmHg 24%
    10:00 +19°C° 0 mm 2 mps 715 mmHg 22%
    11:00 +21°C° 0 mm 2 mps 714 mmHg 20%
    12:00 +23°C° 0 mm 2 mps 714 mmHg 19%
    13:00 +24°C° 0 mm 2 mps 713 mmHg 18%
    14:00 +25°C° 0 mm 2 mps 712 mmHg 17%
    15:00 +25°C° 0 mm 2 mps 712 mmHg 17%
    16:00 +26°C° 0 mm 2 mps 711 mmHg 17%
    17:00 +26°C° 0 mm 2 mps 711 mmHg 17%
    18:00 +24°C° 0 mm 2 mps 712 mmHg 20%
    19:00 +21°C° 0 mm 2 mps 712 mmHg 22%
    20:00 +19°C° 0 mm 2 mps 713 mmHg 25%
    21:00 +19°C° 0 mm 3 mps 714 mmHg 28%
    22:00 +18°C° 0 mm 3 mps 714 mmHg 32%
    23:00 +18°C° 0 mm 4 mps 715 mmHg 36%
    Show more